Location: Grand Mazuras
(45.9128°N, 1.7636°E)
Time: 17:02:54
(UTC+00:00)

Meteor 2-15 Rocket - Pass Details

Date: 18 April 2021
Orbit: 939 x 956 km, 82.5° (Epoch: 12 May)

Event Time Altitude Azimuth Distance (km) Brightness Sun altitude
Exits shadow 22:22:07 81° 258° (WSW) 958 4.3 -29.4°
Maximum altitude 22:22:15 82° 279° (W) 957 4.3 -29.5°
Drops below altitude 10° 22:28:21 10° 7° (N) 2,665 7.5 -29.9°
Sets 22:30:51 0° 9° (N) 3,613 8.3 -30.1°
